Date String (YYYY-MM-DD hh:mm:ss) UTC,Instrument flags,Ambient pressure (hPa),Sample flow (lpm),Bypass flow (lpm),Sample temperature (°C),Ambient temperature (°C),ASC tube jacket temperature (°C),LED temperature (°C),Box temperature (°C),Sample RH (%),Span deviation,Mass concentration (μg/m³),Mass concentration (μg/m³),Mass concentration (μg/m³)
DateTimeUTC,F1_M11,P_M11,Q1_M11,Q2_M11,T1_M11,T2_M11,T3_M11,T4_M11,T5_M11,U1_M11,ZSPAN_M11,X0_M11,X2_M11,X1_M11
2022-08-31 16:00:00,,0831.7,5.01,0.00,29.8,27.9,00.0,38.5,31.6,26.0,0000.0,0018.89,0007.12,0005.77
2022-08-31 16:01:00,,0831.7,5.00,0.00,29.8,28.1,00.0,38.5,31.6,24.9,0000.0,0018.95,0007.15,0005.80
2022-08-31 16:02:00,,0831.7,5.00,0.00,29.9,28.3,00.0,38.5,31.7,25.4,0000.0,0019.71,0007.14,0005.81
2022-08-31 16:03:00,,0831.7,5.01,0.00,29.9,28.5,00.0,38.6,31.7,26.4,0000.0,0020.02,0007.20,0005.82
2022-08-31 16:04:00,,0831.7,4.98,0.00,29.9,28.6,00.0,38.6,31.8,27.3,0000.0,0020.87,0007.26,0005.82
2022-08-31 16:05:00,,0831.7,5.00,0.00,29.9,28.7,00.0,38.6,31.8,28.4,0000.0,0021.13,0007.34,0005.82
2022-08-31 16:06:00,,0831.8,5.00,0.00,30.0,28.9,00.0,38.6,31.9,28.6,0000.0,0020.97,0007.43,0005.85
2022-08-31 16:07:00,,0831.9,5.00,0.00,30.0,29.0,00.0,38.6,31.9,28.7,0000.0,0020.66,0007.47,0005.87
2022-08-31 16:08:00,,0832.0,4.99,0.00,30.0,28.9,00.0,38.7,31.9,28.7,0000.0,0020.38,0007.52,0005.89
2022-08-31 16:09:00,,0832.0,5.00,0.00,30.0,28.0,00.0,38.6,31.9,28.4,0000.0,0020.64,0007.57,0005.91
2022-08-31 16:10:00,,0832.0,5.00,0.00,30.0,27.0,00.0,38.6,31.7,27.9,0000.0,0020.32,0007.60,0005.94
2022-08-31 16:11:00,,0832.0,4.99,0.00,29.9,27.0,00.0,38.6,31.7,27.5,0000.0,0021.89,0007.66,0005.95
2022-08-31 16:12:00,,0832.0,5.01,0.00,29.9,27.3,00.0,38.5,31.6,27.1,0000.0,0023.33,0007.72,0005.97
2022-08-31 16:13:00,,0832.0,5.01,0.00,29.8,27.6,00.0,38.5,31.6,27.2,0000.0,0024.09,0007.84,0006.00
2022-08-31 16:14:00,,0832.0,5.00,0.00,29.8,27.9,00.0,38.5,31.6,26.9,0000.0,0024.76,0007.93,0006.05
2022-08-31 16:15:00,,0832.0,5.00,0.00,29.8,28.1,00.0,38.5,31.7,27.0,0000.0,0024.52,0008.00,0006.10
2022-08-31 16:16:00,,0832.0,5.00,0.00,29.8,28.3,00.0,38.5,31.7,26.9,0000.0,0024.99,0007.96,0006.11
2022-08-31 16:17:00,,0832.0,5.01,0.00,29.9,28.5,00.0,38.5,31.7,26.9,0000.0,0025.55,0007.91,0006.11
2022-08-31 16:18:00,,0832.1,5.01,0.00,29.9,28.6,00.0,38.5,31.8,27.6,0000.0,0026.00,0007.84,0006.11
2022-08-31 16:19:00,,0832.1,4.99,0.00,29.9,28.8,00.0,38.6,31.8,27.0,0000.0,0027.58,0007.87,0006.10
2022-08-31 16:20:00,,0832.1,5.01,0.00,29.9,28.9,00.0,38.6,31.9,26.5,0000.0,0028.26,0007.82,0006.09
2022-08-31 16:21:00,,0832.1,4.99,0.00,30.0,28.2,00.0,38.6,31.9,26.8,0000.0,0029.21,0007.79,0006.09
2022-08-31 16:22:00,,0832.1,5.00,0.00,29.9,27.1,00.0,38.6,31.7,26.3,0000.0,0027.96,0007.80,0006.10
2022-08-31 16:23:00,,0832.0,5.00,0.00,29.9,26.8,00.0,38.5,31.7,26.3,0000.0,0026.96,0007.84,0006.12
2022-08-31 16:24:00,,0832.1,4.99,0.00,29.8,27.1,00.0,38.5,31.6,26.0,0000.0,0026.65,0007.79,0006.13
2022-08-31 16:25:00,,0832.1,5.01,0.00,29.8,27.4,00.0,38.5,31.5,26.0,0000.0,0026.69,0007.81,0006.14
2022-08-31 16:26:00,,0832.1,5.00,0.00,29.8,27.7,00.0,38.4,31.5,26.3,0000.5,0026.92,0007.80,0006.15
2022-08-31 16:27:00,,0832.1,5.00,0.00,29.8,28.0,00.0,38.4,31.5,25.7,0000.0,0027.62,0007.85,0006.15
2022-08-31 16:28:00,,0832.1,5.00,0.00,29.8,28.2,00.0,38.5,31.6,24.0,0000.0,0027.07,0007.84,0006.12
2022-08-31 16:29:00,,0832.1,5.01,0.00,29.8,28.4,00.0,38.5,31.7,24.2,0000.0,0025.68,0007.81,0006.08
2022-08-31 16:30:00,,0832.1,4.99,0.00,29.8,28.6,00.0,38.5,31.7,24.3,0000.0,0023.75,0007.72,0006.03
2022-08-31 16:31:00,,0832.1,5.00,0.00,29.8,28.7,00.0,38.5,31.8,24.1,0000.0,0022.93,0007.65,0005.98
2022-08-31 16:32:00,,0832.2,5.00,0.00,29.9,28.7,00.0,38.5,31.8,24.6,0000.0,0023.51,0007.61,0005.95
2022-08-31 16:33:00,,0832.1,4.99,0.00,29.9,27.8,00.0,38.5,31.7,24.7,0000.0,0023.00,0007.54,0005.91
2022-08-31 16:34:00,,0832.2,5.01,0.00,29.8,26.9,00.0,38.5,31.6,25.1,0000.0,0022.12,0007.48,0005.89
2022-08-31 16:35:00,,0832.1,5.00,0.00,29.8,26.9,00.0,38.4,31.6,24.6,0000.0,0021.76,0007.42,0005.88
2022-08-31 16:36:00,,0832.1,5.00,0.00,29.7,27.2,00.0,38.4,31.4,24.4,0000.0,0022.05,0007.36,0005.87
2022-08-31 16:37:00,,0832.1,5.00,0.00,29.7,27.5,00.0,38.4,31.4,24.4,0000.0,0021.23,0007.34,0005.87
2022-08-31 16:38:00,,0832.2,4.99,0.00,29.7,27.7,00.0,38.4,31.4,24.7,0000.0,0020.64,0007.28,0005.87
2022-08-31 16:39:00,,0832.2,5.00,0.00,29.7,28.0,00.0,38.4,31.5,24.7,0000.0,0020.47,0007.33,0005.90
2022-08-31 16:40:00,,0832.3,5.01,0.00,29.7,28.2,00.0,38.4,31.5,24.7,0000.0,0020.57,0007.38,0005.94
2022-08-31 16:41:00,,0832.3,5.00,0.00,29.7,28.4,00.0,38.4,31.6,24.8,0000.0,0021.01,0007.47,0006.00
2022-08-31 16:42:00,,0832.3,5.01,0.00,29.8,28.6,00.0,38.4,31.7,24.8,0000.0,0021.42,0007.55,0006.05
2022-08-31 16:43:00,,0832.3,5.00,0.00,29.8,28.7,00.0,38.4,31.7,23.9,0000.0,0020.71,0007.60,0006.07
2022-08-31 16:44:00,,0832.2,4.98,0.00,29.8,28.6,00.0,38.4,31.8,23.8,0000.0,0021.59,0007.59,0006.08
2022-08-31 16:45:00,,0832.2,5.00,0.00,29.8,27.5,00.0,38.4,31.6,24.2,0000.0,0022.88,0007.61,0006.07
2022-08-31 16:46:00,,0832.2,5.00,0.00,29.8,26.8,00.0,38.4,31.5,24.4,0000.0,0023.19,0007.64,0006.05
2022-08-31 16:47:00,,0832.3,5.00,0.00,29.7,27.0,00.0,38.4,31.5,24.7,0000.0,0022.25,0007.64,0006.05
2022-08-31 16:48:00,,0832.3,5.00,0.00,29.7,27.2,00.0,38.3,31.4,24.7,0000.0,0023.16,0007.64,0006.05
2022-08-31 16:49:00,,0832.2,5.01,0.00,29.6,27.5,00.0,38.3,31.4,24.6,0000.0,0023.09,0007.64,0006.06
2022-08-31 16:50:00,,0832.2,5.01,0.00,29.6,27.8,00.0,38.3,31.4,24.2,0000.0,0022.60,0007.59,0006.05
2022-08-31 16:51:00,,0832.2,5.00,0.00,29.6,28.0,00.0,38.3,31.5,24.3,0000.0,0022.35,0007.52,0006.03
2022-08-31 16:52:00,,0832.2,4.98,0.00,29.7,28.2,00.0,38.3,31.5,23.6,0000.0,0021.87,0007.42,0006.00
2022-08-31 16:53:00,,0832.2,5.00,0.00,29.7,28.4,00.0,38.3,31.6,23.1,0000.0,0020.87,0007.34,0005.97
2022-08-31 16:54:00,,0832.2,5.01,0.00,29.7,28.6,00.0,38.4,31.6,23.0,0000.0,0019.95,0007.24,0005.93
2022-08-31 16:55:00,,0832.2,4.99,0.00,29.8,28.1,00.0,38.4,31.6,23.4,0000.0,0020.36,0007.23,0005.92
2022-08-31 16:56:00,,0832.2,5.00,0.00,29.7,27.1,00.0,38.3,31.5,23.7,0000.0,0020.07,0007.21,0005.91
2022-08-31 16:57:00,,0832.2,4.98,0.00,29.7,26.8,00.0,38.3,31.4,24.3,0000.0,0019.62,0007.21,0005.91
2022-08-31 16:58:00,,0832.2,5.00,0.00,29.6,27.0,00.0,38.3,31.4,24.4,0000.0,0019.29,0007.24,0005.90
2022-08-31 16:59:00,,0832.1,5.01,0.00,29.6,27.3,00.0,38.2,31.3,24.9,0000.0,0018.88,0007.19,0005.89
